Starlink 11422

operational
NORAD ID: 61944 Int'l Des: 2024-209 Owner: SPXS Country: US Constellation: starlink
LEOCIRCULAR

关于 Starlink 11422

正在加载描述...

实时位置

正在加载3D地球...

即将过境

高度历史

Altitude vs Time

uPlot chart will show altitude changes over time

两行轨道根数

1 61944U 24209F 25351.61254588 .00161480 00000-0 13093-2 0 9994
2 61944 53.1576 56.1033 0001273 78.5534 281.5627 15.69758261 63781
Epoch: Dec 17, 2025 • Age: 21 hours

当前状态

高度 359.0 km
速度 7.70 km/s
星下点 19.65°N, 39.19°W
发射日期 Nov 14, 2024
运行时间 1 years
类型 internet

技术详情

分类 Payload
质量 960.00 kg
干质量 910.00 kg
总质量 960.00 kg
长度 0.30 m
直径 4.10 m
跨度 29.00 m
形状 Box + pan
制造商 SPXS
平台类型 Starlink V2MD
阶段状态 In Orbit
所有者/国家 SPXS/US

大型星座

Loading constellations...